When you browse on this site, cookies collect data to enhance your experience and personalize the content and advertising you see.
Visit our Privacy Policy to learn more. By continuing to use the site, you agree to this use of cookies and data.
  • In United Kingdom
  • List of Countries
  • For 7 days
  • Water Temperature
  • Satellite Maps
  • Weather Map
  • Weather Widgets
  • user-avatar
    Login

    Hourly Weather Zaragoza

    Today, 11 December, Tuesday

    Time Temperature Precipitation Wind Pressure Humidity
    00:00 +9°C° 0 mm 1 mps 750 mmHg 73%
    01:00 +8°C° 0 mm 1 mps 750 mmHg 75%
    02:00 +8°C° 0 mm 1 mps 749 mmHg 76%
    03:00 +8°C° 0 mm 1 mps 749 mmHg 77%
    04:00 +6°C° 0 mm 0 mps 749 mmHg 77%
    05:00 +6°C° 0 mm 0 mps 748 mmHg 78%
    06:00 +6°C° 0 mm 0 mps 748 mmHg 78%
    07:00 +7°C° 0 mm 0 mps 748 mmHg 73%
    08:00 +9°C° 0 mm 1 mps 748 mmHg 67%
    09:00 +11°C° 0 mm 1 mps 748 mmHg 62%
    10:00 +12°C° 0 mm 1 mps 748 mmHg 56%
    11:00 +13°C° 0 mm 1 mps 747 mmHg 50%
    12:00 +15°C° 0 mm 1 mps 747 mmHg 45%
    13:00 +15°C° 0 mm 1 mps 747 mmHg 44%
    14:00 +16°C° 0 mm 1 mps 746 mmHg 44%
    15:00 +16°C° 0 mm 1 mps 746 mmHg 43%
    16:00 +14°C° 0 mm 1 mps 746 mmHg 49%
    17:00 +13°C° 0 mm 1 mps 746 mmHg 54%
    18:00 +11°C° 0 mm 1 mps 746 mmHg 60%
    19:00 +11°C° 0 mm 1 mps 746 mmHg 59%
    20:00 +10°C° 0 mm 2 mps 746 mmHg 58%
    21:00 +10°C° 0 mm 2 mps 747 mmHg 58%
    22:00 +10°C° 0 mm 2 mps 747 mmHg 58%
    23:00 +10°C° 0 mm 3 mps 747 mmHg 58%

    Tomorrow, 12 December, Wednesday

    Time Temperature Precipitation Wind Pressure Humidity
    00:00 +10°C° 0 mm 3 mps 747 mmHg 58%
    01:00 +10°C° 0 mm 3 mps 747 mmHg 58%
    02:00 +10°C° 0 mm 3 mps 747 mmHg 59%
    03:00 +8°C° 0 mm 4 mps 747 mmHg 60%
    04:00 +8°C° 0 mm 4 mps 747 mmHg 63%
    05:00 +8°C° 0 mm 4 mps 747 mmHg 67%
    06:00 +8°C° 0 mm 4 mps 747 mmHg 70%
    07:00 +8°C° 0 mm 4 mps 747 mmHg 68%
    08:00 +10°C° 0 mm 4 mps 747 mmHg 66%
    09:00 +11°C° 0 mm 4 mps 747 mmHg 64%
    10:00 +12°C° 0 mm 4 mps 747 mmHg 62%
    11:00 +13°C° 0 mm 4 mps 746 mmHg 59%
    12:00 +14°C° 0 mm 5 mps 746 mmHg 57%
    13:00 +14°C° 0 mm 4 mps 745 mmHg 56%
    14:00 +14°C° 0 mm 4 mps 744 mmHg 55%
    15:00 +14°C° 0 mm 4 mps 744 mmHg 54%
    16:00 +13°C° 0 mm 3 mps 744 mmHg 59%
    17:00 +12°C° 0 mm 3 mps 744 mmHg 64%
    18:00 +12°C° 0 mm 2 mps 744 mmHg 70%
    19:00 +12°C° 0 mm 2 mps 743 mmHg 70%
    20:00 +12°C° 0 mm 2 mps 743 mmHg 69%
    21:00 +12°C° 0 mm 2 mps 743 mmHg 69%
    22:00 +12°C° 0 mm 2 mps 742 mmHg 70%
    23:00 +11°C° 0 mm 3 mps 742 mmHg 71%

    Day after tomorrow, 13 December, Thursday

    Time Temperature Precipitation Wind Pressure Humidity
    00:00 +11°C° 0 mm 3 mps 742 mmHg 72%
    01:00 +11°C° 0 mm 4 mps 741 mmHg 73%
    02:00 +11°C° 0 mm 4 mps 741 mmHg 73%
    03:00 +11°C° 0 mm 4 mps 740 mmHg 73%
    04:00 +11°C° 0 mm 4 mps 739 mmHg 73%
    05:00 +11°C° 0 mm 4 mps 738 mmHg 73%
    06:00 +11°C° 0 mm 3 mps 737 mmHg 72%
    07:00 +11°C° 0.1 mm 3 mps 737 mmHg 72%
    08:00 +11°C° 0.1 mm 3 mps 736 mmHg 72%
    09:00 +11°C° 0.1 mm 3 mps 736 mmHg 72%
    10:00 +11°C° 1.6 mm 3 mps 736 mmHg 74%
    11:00 +11°C° 1.6 mm 4 mps 735 mmHg 76%
    12:00 +10°C° 1.6 mm 4 mps 735 mmHg 78%
    13:00 +9°C° 1.3 mm 5 mps 735 mmHg 78%
    14:00 +8°C° 1.3 mm 7 mps 735 mmHg 78%
    15:00 +7°C° 1.3 mm 9 mps 735 mmHg 78%
    16:00 +7°C° 0.5 mm 10 mps 736 mmHg 78%
    17:00 +7°C° 0.5 mm 10 mps 736 mmHg 78%
    18:00 +7°C° 0.5 mm 11 mps 736 mmHg 78%
    19:00 +7°C° 0.3 mm 10 mps 737 mmHg 76%
    20:00 +7°C° 0.3 mm 10 mps 738 mmHg 74%
    21:00 +7°C° 0.3 mm 10 mps 739 mmHg 72%
    22:00 +7°C° 0.1 mm 10 mps 739 mmHg 72%
    23:00 +7°C° 0.1 mm 9 mps 740 mmHg 72%

    14 December, Friday

    Time Temperature Precipitation Wind Pressure Humidity
    00:00 +7°C° 0.1 mm 8 mps 740 mmHg 72%
    01:00 +7°C° 0 mm 8 mps 740 mmHg 72%
    02:00 +6°C° 0 mm 8 mps 741 mmHg 73%
    03:00 +6°C° 0 mm 7 mps 741 mmHg 73%
    04:00 +6°C° 0 mm 7 mps 742 mmHg 74%
    05:00 +6°C° 0 mm 7 mps 742 mmHg 75%
    06:00 +6°C° 0 mm 7 mps 743 mmHg 76%
    07:00 +6°C° 0 mm 7 mps 744 mmHg 75%
    08:00 +8°C° 0 mm 7 mps 745 mmHg 75%
    09:00 +9°C° 0 mm 7 mps 746 mmHg 74%
    10:00 +10°C° 0 mm 8 mps 746 mmHg 71%
    11:00 +11°C° 0 mm 8 mps 746 mmHg 68%
    12:00 +12°C° 0 mm 9 mps 746 mmHg 64%
    13:00 +12°C° 0 mm 9 mps 746 mmHg 64%
    14:00 +12°C° 0 mm 9 mps 747 mmHg 65%
    15:00 +12°C° 0 mm 9 mps 747 mmHg 65%
    16:00 +11°C° 0 mm 8 mps 748 mmHg 68%
    17:00 +10°C° 0 mm 8 mps 748 mmHg 71%
    18:00 +9°C° 0 mm 7 mps 749 mmHg 74%
    19:00 +9°C° 0 mm 7 mps 750 mmHg 75%
    20:00 +8°C° 0 mm 6 mps 750 mmHg 76%
    21:00 +8°C° 0 mm 5 mps 751 mmHg 77%
    22:00 +8°C° 0 mm 5 mps 751 mmHg 77%
    23:00 +7°C° 0 mm 5 mps 751 mmHg 77%

    15 December, Saturday

    Time Temperature Precipitation Wind Pressure Humidity
    00:00 +7°C° 0 mm 4 mps 751 mmHg 78%
    01:00 +7°C° 0 mm 4 mps 751 mmHg 78%
    02:00 +6°C° 0 mm 4 mps 751 mmHg 78%
    03:00 +7°C° 0 mm 3 mps 751 mmHg 78%
    04:00 +7°C° 0 mm 3 mps 751 mmHg 78%
    05:00 +5°C° 0 mm 3 mps 751 mmHg 77%
    06:00 +5°C° 0 mm 3 mps 751 mmHg 77%
    07:00 +7°C° 0 mm 3 mps 751 mmHg 74%
    08:00 +8°C° 0 mm 3 mps 752 mmHg 71%
    09:00 +8°C° 0 mm 3 mps 752 mmHg 67%
    10:00 +10°C° 0 mm 3 mps 752 mmHg 63%
    11:00 +11°C° 0 mm 3 mps 751 mmHg 58%
    12:00 +13°C° 0 mm 3 mps 751 mmHg 54%
    13:00 +14°C° 0 mm 2 mps 750 mmHg 54%
    14:00 +15°C° 0 mm 2 mps 750 mmHg 54%
    15:00 +15°C° 0 mm 2 mps 750 mmHg 54%
    16:00 +14°C° 0 mm 2 mps 750 mmHg 60%
    17:00 +12°C° 0 mm 2 mps 750 mmHg 65%
    18:00 +10°C° 0 mm 2 mps 751 mmHg 71%
    19:00 +10°C° 0 mm 2 mps 751 mmHg 72%
    20:00 +10°C° 0 mm 2 mps 751 mmHg 73%
    21:00 +10°C° 0 mm 2 mps 751 mmHg 74%
    22:00 +10°C° 0.1 mm 2 mps 751 mmHg 74%
    23:00 +10°C° 0.1 mm 2 mps 751 mmHg 75%

    16 December, Sunday

    Time Temperature Precipitation Wind Pressure Humidity
    00:00 +10°C° 0.1 mm 2 mps 751 mmHg 75%
    01:00 +10°C° 0 mm 2 mps 750 mmHg 75%
    02:00 +10°C° 0 mm 2 mps 750 mmHg 76%
    03:00 +10°C° 0 mm 2 mps 750 mmHg 76%
    04:00 +10°C° 0 mm 2 mps 750 mmHg 77%
    05:00 +10°C° 0 mm 2 mps 750 mmHg 78%
    06:00 +10°C° 0 mm 2 mps 749 mmHg 79%
    07:00 +10°C° 0 mm 2 mps 750 mmHg 76%
    08:00 +12°C° 0 mm 2 mps 750 mmHg 74%
    09:00 +13°C° 0 mm 2 mps 750 mmHg 72%
    10:00 +14°C° 0 mm 2 mps 749 mmHg 67%
    11:00 +15°C° 0 mm 2 mps 749 mmHg 62%
    12:00 +17°C° 0 mm 3 mps 749 mmHg 58%
    13:00 +17°C° 0 mm 3 mps 749 mmHg 59%
    14:00 +17°C° 0 mm 2 mps 749 mmHg 59%
    15:00 +17°C° 0 mm 2 mps 749 mmHg 60%
    16:00 +16°C° 0 mm 3 mps 749 mmHg 64%
    17:00 +14°C° 0 mm 3 mps 749 mmHg 67%
    18:00 +13°C° 0 mm 3 mps 750 mmHg 71%
    19:00 +13°C° 0 mm 3 mps 750 mmHg 72%
    20:00 +12°C° 0 mm 3 mps 750 mmHg 73%
    21:00 +13°C° 0 mm 2 mps 751 mmHg 74%
    22:00 +13°C° 0 mm 2 mps 751 mmHg 75%
    23:00 +12°C° 0 mm 2 mps 751 mmHg 76%
    Show more